This is the latest recevied weather packets stored in our database for station/object EFOU. If no packets are shown the sender has not sent any weather packets the latest 10 day(s).
| Time | Temp. | Humidity | Pressure | Rain* | Wind** | Luminosity | Snow |
|---|---|---|---|---|---|---|---|
| 1777868828 | 1.67° C | 70% | 1005.9 hPa | - | - | - | - |
| 1777867627 | 0.56° C | 74% | 1006 hPa | - | - | - | - |
| 1777866427 | 0° C | 76% | 1005.9 hPa | - | - | - | - |
| 1777865227 | -0.56° C | 78% | 1005.9 hPa | - | - | - | - |
| 1777864027 | -1.11° C | 81% | 1006 hPa | - | - | - | - |
| 1777862827 | -1.11° C | 81% | 1006.2 hPa | - | - | - | - |
| 1777861627 | -1.11° C | 82% | 1006.3 hPa | - | - | - | - |
| 1777860427 | -1.67° C | 83% | 1006.5 hPa | - | - | - | - |
| 1777859227 | -1.67° C | 82% | 1006.6 hPa | - | - | - | - |
| 1777858027 | -1.67° C | 82% | 1006.7 hPa | - | - | - | - |
| 1777856827 | -1.11° C | 81% | 1006.8 hPa | - | - | - | - |
| 1777855627 | -1.67° C | 81% | 1006.8 hPa | - | - | - | - |
| 1777854427 | -1.67° C | 81% | 1007 hPa | - | - | - | - |
| 1777853227 | -1.11° C | 78% | 1006.9 hPa | - | - | - | - |
| 1777852027 | -0.56° C | 77% | 1007.1 hPa | - | - | - | - |
| 1777850826 | -1.11° C | 79% | 1007.1 hPa | - | - | - | - |
| 1777849627 | -0.56° C | 79% | 1007.1 hPa | - | - | - | - |
| 1777848427 | 0° C | 80% | 1007.1 hPa | - | - | - | - |
| 1777847227 | 0° C | 78% | 1007.2 hPa | - | - | - | - |
| 1777846026 | 0.56° C | 76% | 1007.3 hPa | - | - | - | - |
| 1777844826 | 2.78° C | 71% | 1007.3 hPa | - | - | - | - |
| 1777843626 | 2.78° C | 70% | 1007.4 hPa | - | - | - | - |
| 1777842426 | 2.78° C | 69% | 1007.4 hPa | - | - | - | - |
| 1777841226 | 2.78° C | 66% | 1007.4 hPa | - | - | - | - |
| 1777840026 | 3.33° C | 64% | 1007.4 hPa | - | - | - | - |
* Rain since midnight (hover to see other rain measurements)
** Current wind speed in m/s (hover to see current wind gust speed)